Wind_Speed
66 70 72 66 67 64 57 51 48 43 37 43 41 41 39 39 40 38 28 29 30 30 25 33 30 34 34 32 30 31 33 36 38 36 38 40 41 40 39 39 39 40 42 43
72 70 70 69 69 60 54 51 48 44 38 44 45 47 41 39 40 36 33 32 34 32 32 33 32 32 29 30 30 30 32 37 38 38 40 42 42 43 43 42 43 42 43 45
65 58 57 57 56 54 49 49 45 46 42 45 47 48 44 42 39 37 36 37 31 34 34 36 31 29 30 29 29 32 34 35 40 40 42 41 44 46 47 45 46 46 45 46
50 48 49 50 52 47 49 46 49 49 49 47 45 52 47 40 38 40 38 40 39 33 31 34 34 33 30 33 33 31 33 36 42 44 44 45 47 50 51 50 49 49 49 52
47 46 45 49 47 46 46 45 47 50 51 51 50 50 49 42 37 41 42 43 42 40 38 36 35 33 35 38 38 36 37 38 38 40 46 49 52 56 58 55 54 54 55 57
46 45 47 45 44 45 46 47 46 48 47 52 52 48 47 44 43 41 42 44 44 42 42 42 40 41 40 39 39 40 42 43 46 46 48 50 54 59 61 61 61 60 61 63
34 40 35 38 43 44 44 45 48 51 51 53 50 48 46 48 47 46 45 43 44 43 42 44 45 42 40 42 42 45 49 51 54 55 57 58 54 60 63 64 64 64 64 66
38 38 35 35 37 31 35 39 46 50 50 50 49 53 50 49 50 50 50 48 47 46 42 41 41 41 41 44 47 51 56 58 63 65 63 66 67 62 68 69 64 62 62 63
48 46 44 46 46 47 39 41 36 44 48 51 51 53 50 50 51 50 50 49 48 48 48 41 37 38 42 50 57 59 63 67 70 70 66 59 68 65 72 69 63 57 57 57
54 57 53 51 53 56 54 42 42 45 45 48 50 51 51 50 48 47 46 48 49 46 41 43 44 40 38 43 55 58 64 72 71 81 70 57 53 53 46 56 46 48 49 54
63 62 58 56 54 54 52 52 49 47 46 45 43 44 45 45 45 47 49 51 49 45 42 43 46 49 54 49 46 67 73 79 65 65 65 62 67 61 54 52 53 56 53 52
56 56 59 55 54 54 54 52 52 51 50 47 48 47 48 49 47 46 50 49 47 48 47 49 49 50 53 51 55 48 70 67 63 77 72 69 67 69 72 68 56 51 51 49
56 60 57 56 57 57 56 54 53 53 52 50 48 47 45 45 48 42 42 45 45 47 50 53 54 56 57 58 62 64 66 68 69 69 71 63 58 58 59 57 54 53 53 54
65 62 60 58 60 58 57 57 54 54 55 53 49 47 46 50 55 57 59 63 63 60 56 54 51 50 51 56 56 57 60 61 59 55 57 58 59 57 56 56 56 54 51 48
72 73 66 66 64 64 63 61 54 56 55 55 51 50 47 49 51 53 55 55 51 45 50 54 52 53 56 54 53 55 58 59 58 56 54 54 52 51 51 52 52 53 52 52
60 57 61 59 63 66 56 53 56 59 60 59 51 50 43 50 53 53 51 50 52 52 53 52 54 56 58 57 57 58 55 48 46 48 51 52 54 53 51 52 54 55 55 53
70 69 74 62 59 64 61 62 60 54 52 51 53 50 49 47 46 44 42 43 44 48 50 48 47 48 50 46 42 41 43 44 45 47 49 50 49 45 41 42 45 45 45 45
74 79 70 58 53 59 62 51 49 49 49 48 47 41 39 42 38 38 39 41 38 37 40 42 42 38 38 39 40 39 35 38 43 46 44 39 33 32 27 20 22 24 27 33
61 59 60 53 55 58 58 66 47 44 43 42 43 40 38 36 38 38 39 39 37 36 36 34 36 37 38 35 33 33 34 34 40 39 33 31 30 25 22 24 29 29 30 31
59 56 56 55 54 54 55 44 47 45 48 43 44 43 42 41 40 38 37 42 40 37 37 37 37 37 36 32 32 32 31 31 30 31 34 30 30 30 32 35 37 36 35 38
62 64 62 58 57 58 58 53 49 52 49 45 45 45 51 54 51 49 47 46 46 41 40 39 37 35 32 29 28 28 31 31 31 33 32 30 32 34 36 39 39 39 42 42
61 60 59 60 61 62 60 55 58 60 61 57 59 58 55 56 54 50 48 48 45 41 40 37 36 35 34 31 31 31 31 32 34 35 34 36 39 40 43 45 45 44 44 44
63 66 66 65 64 60 60 64 62 63 64 64 62 61 60 59 55 54 53 49 43 42 37 36 37 37 33 33 34 31 33 35 39 40 42 44 47 49 52 54 53 50 45 44
57 60 66 69 63 66 61 64 64 65 66 67 68 64 62 60 61 57 46 43 42 38 39 39 40 42 34 35 32 31 35 40 43 45 47 51 53 54 54 53 50 47 43 42
47 51 54 62 66 68 65 63 68 67 65 71 73 71 65 57 52 56 55 45 43 38 38 39 39 35 34 36 32 32 37 43 44 45 48 51 53 55 56 54 52 49 46 44
40 45 52 57 54 60 65 64 64 68 68 61 60 58 59 62 59 49 44 40 44 43 38 45 37 36 35 35 33 32 36 36 39 42 47 55 57 56 54 52 47 41 37 31
Wind_Direction
266 270 273 281 285 283 281 279 278 277 271 271 272 272 272 272 270 267 269 264 268 266 262 254 252 253 263 264 262 255 253 256 257 258 260 263 263 263 265 266 266 269 270 271
266 273 277 279 278 276 276 277 277 275 271 268 268 270 270 267 271 276 267 254 256 254 251 256 255 257 262 263 260 259 256 256 254 259 260 262 262 265 265 267 268 267 268 270
268 274 271 274 275 273 274 275 275 272 264 265 268 270 270 268 270 269 267 263 251 254 257 262 263 260 263 265 266 257 253 251 249 253 257 260 263 265 266 266 267 269 271 274
271 270 274 275 273 271 270 271 271 270 268 264 261 267 265 268 262 266 265 266 267 260 258 268 273 276 278 271 263 260 256 254 252 254 258 259 262 265 266 267 268 270 272 272
273 271 269 271 273 268 271 268 269 268 266 267 266 263 269 267 261 264 262 265 270 272 276 272 266 266 267 270 273 270 265 260 259 258 257 258 260 262 264 263 263 265 265 266
269 271 269 269 265 266 266 265 264 268 270 266 267 269 264 265 265 255 256 264 269 272 275 275 273 275 275 272 272 272 267 263 262 262 262 263 263 261 264 266 263 261 261 263
264 268 270 273 270 269 270 271 271 267 261 270 270 267 270 267 264 264 264 261 261 265 264 267 269 269 269 267 267 266 264 263 264 265 265 265 260 267 264 266 267 265 267 269
263 266 275 280 281 283 269 262 262 265 270 270 265 266 266 265 266 269 271 272 274 273 269 265 262 263 262 262 258 258 261 263 259 259 258 260 264 260 265 269 266 266 267 268
260 260 270 270 272 273 279 269 280 270 266 267 267 268 269 269 269 271 275 275 274 273 273 273 277 267 257 250 249 254 251 252 255 255 262 249 258 258 261 260 261 267 270 274
267 267 269 270 268 267 264 266 258 266 269 267 269 271 271 272 274 273 271 272 273 274 278 283 287 271 267 270 263 254 251 249 247 257 252 251 249 259 271 272 269 273 279 281
263 268 270 270 269 266 263 259 256 255 254 256 261 268 272 275 273 273 270 272 271 270 271 274 277 275 280 283 274 245 239 243 238 248 277 274 281 285 279 278 278 280 283 283
260 259 263 265 265 262 260 253 249 247 250 251 256 260 262 264 265 268 270 270 266 267 267 272 271 267 267 262 247 246 243 270 253 272 282 279 279 281 286 291 291 292 291 284
253 254 258 257 253 255 253 253 251 250 251 255 259 262 267 264 259 260 257 255 257 259 266 273 274 273 269 266 266 267 269 270 271 273 278 285 283 282 285 289 290 288 285 281
259 257 255 254 255 254 254 251 249 249 253 256 257 261 262 267 271 271 270 271 276 281 279 277 276 271 268 271 275 280 279 280 281 284 289 290 290 289 287 285 284 281 277 274
246 250 254 252 253 251 255 246 244 247 252 256 259 263 264 272 273 274 273 275 277 273 274 277 275 272 279 277 278 278 276 277 285 290 288 287 286 283 283 279 276 274 277 279
234 237 232 230 237 240 237 243 248 252 254 254 258 261 264 268 269 272 274 277 280 282 279 277 274 272 272 276 279 277 285 287 285 283 284 285 284 283 280 277 275 274 272 273
245 243 246 244 237 237 243 235 239 247 253 259 258 262 263 270 270 270 272 276 275 278 279 277 275 274 275 279 280 282 285 287 289 291 293 292 288 284 278 278 280 283 284 282
246 255 258 264 257 254 257 259 265 258 252 257 261 267 267 266 265 269 278 271 270 272 273 272 271 275 277 279 283 285 289 292 295 298 293 292 290 287 288 292 291 292 287 283
249 255 262 267 268 270 269 270 270 259 256 256 260 255 251 259 261 270 267 272 280 276 271 269 274 277 282 285 284 286 291 295 305 295 286 294 293 287 287 296 310 305 300 303
252 256 262 263 265 268 272 264 263 249 252 253 253 255 249 256 264 269 272 275 272 270 273 270 274 281 286 283 285 289 293 295 285 280 289 294 292 288 285 299 305 306 307 316
250 251 254 259 257 259 263 262 258 243 253 250 249 251 242 248 259 261 264 274 270 268 268 275 282 285 278 273 278 288 282 282 280 280 287 291 287 289 297 304 306 304 305 303
251 253 254 256 252 245 249 254 253 252 255 253 253 251 253 258 264 267 271 275 270 265 267 273 279 273 273 276 277 277 277 278 278 277 278 281 286 285 294 297 297 297 298 300
248 249 248 248 249 250 249 249 250 251 253 257 250 252 257 261 264 263 273 268 261 266 260 266 266 268 270 273 275 277 276 275 275 275 276 277 282 284 286 290 292 294 293 298
249 250 251 248 247 247 249 249 253 254 251 248 250 250 260 257 259 264 263 258 265 259 263 264 261 267 265 272 275 280 276 276 276 278 282 286 288 287 286 287 288 288 286 291
254 256 260 258 251 251 252 253 250 244 248 251 251 254 256 254 254 256 252 257 259 258 259 264 260 257 264 270 276 285 279 277 280 282 283 286 287 287 284 283 281 280 281 281
271 270 263 261 256 255 250 250 250 251 248 237 235 239 249 249 249 241 249 260 261 268 259 266 248 256 264 270 277 282 278 283 285 288 292 292 291 288 283 277 274 273 271 267
Height
5775 5773 5772 5778 5776 5773 5770 5767 5767 5768 5769 5765 5767 5765 5765 5765 5765 5767 5772 5769 5771 5769 5769 5764 5768 5766 5768 5771 5775 5771 5773 5770 5768 5768 5768 5767 5766 5766 5766 5766 5767 5768 5767 5765
5761 5760 5763 5762 5759 5758 5758 5758 5758 5758 5758 5753 5754 5754 5755 5756 5757 5761 5760 5762 5761 5762 5760 5758 5760 5760 5762 5763 5765 5766 5764 5762 5761 5760 5758 5758 5758 5757 5757 5757 5757 5756 5755 5755
5748 5750 5747 5746 5746 5746 5748 5746 5748 5746 5746 5745 5745 5746 5747 5748 5750 5750 5751 5752 5754 5752 5753 5752 5754 5755 5754 5755 5756 5755 5755 5753 5752 5750 5749 5748 5747 5746 5746 5746 5745 5745 5745 5744
5734 5735 5736 5735 5734 5736 5736 5737 5736 5735 5733 5735 5735 5733 5739 5743 5743 5742 5743 5743 5741 5743 5746 5745 5745 5745 5746 5746 5745 5747 5745 5745 5742 5739 5738 5737 5736 5733 5732 5733 5733 5733 5732 5731
5724 5724 5724 5723 5726 5724 5726 5726 5725 5723 5722 5724 5725 5726 5730 5734 5736 5734 5734 5732 5732 5732 5733 5736 5737 5737 5736 5737 5736 5736 5736 5735 5733 5731 5728 5726 5723 5720 5719 5718 5719 5718 5717 5715
5712 5711 5711 5715 5715 5713 5713 5713 5714 5713 5713 5712 5713 5716 5723 5724 5723 5724 5725 5725 5725 5726 5726 5726 5727 5727 5728 5728 5727 5726 5724 5722 5720 5719 5716 5714 5710 5708 5707 5705 5704 5703 5702 5701
5700 5703 5703 5702 5702 5701 5703 5704 5704 5701 5700 5704 5705 5703 5711 5709 5711 5712 5713 5716 5717 5718 5718 5717 5717 5718 5718 5718 5717 5714 5710 5708 5706 5704 5702 5701 5701 5696 5693 5692 5691 5690 5690 5689
5688 5692 5694 5698 5695 5694 5691 5692 5691 5688 5691 5696 5694 5690 5697 5699 5698 5698 5698 5701 5703 5704 5705 5706 5706 5706 5705 5705 5704 5701 5698 5696 5689 5686 5687 5687 5685 5682 5679 5679 5677 5676 5675 5675
5675 5679 5680 5683 5685 5684 5685 5678 5685 5680 5679 5678 5680 5680 5686 5687 5686 5686 5686 5686 5686 5687 5687 5689 5692 5692 5692 5690 5687 5686 5685 5682 5680 5677 5675 5674 5673 5666 5667 5663 5663 5661 5660 5660
5663 5664 5666 5669 5670 5670 5669 5672 5668 5666 5667 5666 5667 5668 5672 5675 5677 5676 5673 5673 5674 5676 5676 5674 5673 5676 5676 5676 5675 5674 5673 5671 5668 5664 5663 5660 5654 5657 5649 5649 5648 5647 5646 5646
5652 5651 5655 5654 5655 5655 5657 5654 5654 5655 5654 5653 5656 5659 5662 5664 5664 5662 5660 5662 5663 5664 5662 5663 5663 5664 5662 5662 5661 5659 5656 5651 5645 5648 5642 5639 5639 5635 5636 5633 5634 5635 5633 5634
5636 5632 5637 5639 5640 5641 5641 5641 5641 5639 5643 5644 5643 5647 5649 5648 5649 5650 5648 5648 5650 5652 5651 5650 5653 5652 5652 5653 5652 5640 5643 5637 5636 5631 5627 5627 5626 5624 5624 5623 5622 5621 5621 5621
5617 5615 5622 5624 5624 5625 5624 5627 5629 5630 5631 5632 5632 5635 5638 5637 5637 5637 5637 5636 5639 5639 5639 5639 5637 5636 5636 5634 5632 5629 5627 5624 5623 5621 5618 5616 5616 5616 5614 5612 5610 5610 5609 5608
5598 5603 5606 5610 5611 5614 5613 5615 5617 5619 5618 5617 5622 5625 5629 5626 5623 5625 5626 5626 5626 5625 5625 5627 5627 5625 5624 5620 5617 5615 5613 5612 5610 5608 5607 5604 5602 5601 5601 5599 5597 5596 5595 5593
5584 5584 5588 5594 5595 5596 5595 5600 5604 5605 5605 5602 5612 5609 5619 5615 5611 5607 5609 5610 5618 5618 5615 5614 5614 5612 5609 5607 5606 5604 5602 5601 5599 5597 5595 5591 5589 5588 5586 5584 5581 5579 5578 5577
5574 5574 5576 5575 5579 5580 5580 5585 5590 5591 5593 5591 5596 5600 5610 5604 5598 5596 5600 5602 5602 5603 5601 5603 5602 5601 5598 5597 5594 5592 5588 5587 5586 5583 5581 5578 5576 5574 5572 5569 5565 5564 5564 5563
5561 5564 5567 5564 5567 5562 5558 5577 5578 5578 5580 5582 5581 5590 5594 5589 5584 5584 5589 5591 5590 5589 5588 5585 5587 5587 5586 5584 5582 5581 5578 5575 5573 5570 5566 5564 5562 5560 5558 5556 5554 5552 5551 5551
5545 5545 5545 5547 5551 5538 5560 5569 5570 5565 5566 5568 5570 5576 5578 5576 5572 5573 5580 5579 5579 5578 5577 5575 5573 5573 5573 5573 5572 5570 5568 5565 5563 5560 5556 5553 5552 5550 5548 5546 5545 5543 5542 5540
5532 5531 5531 5530 5532 5533 5536 5557 5548 5547 5555 5557 5559 5564 5565 5563 5561 5567 5567 5566 5568 5567 5566 5565 5565 5564 5563 5562 5561 5560 5557 5555 5552 5549 5547 5546 5544 5542 5541 5539 5538 5536 5533 5531
5516 5517 5517 5519 5518 5520 5535 5539 5536 5535 5537 5543 5542 5549 5552 5548 5547 5558 5557 5555 5555 5555 5556 5556 5555 5555 5553 5551 5551 5550 5547 5545 5542 5541 5540 5538 5537 5535 5534 5532 5529 5527 5524 5521
5502 5501 5502 5505 5507 5510 5521 5520 5521 5520 5532 5529 5531 5534 5532 5532 5537 5542 5542 5542 5543 5543 5543 5543 5542 5542 5542 5542 5542 5540 5538 5535 5532 5531 5530 5529 5528 5527 5524 5522 5520 5517 5514 5512
5484 5484 5487 5489 5492 5496 5503 5505 5504 5504 5510 5515 5515 5518 5520 5523 5526 5527 5527 5529 5531 5530 5530 5529 5530 5530 5530 5531 5530 5529 5528 5526 5524 5523 5521 5520 5518 5516 5513 5511 5509 5507 5504 5502
5469 5470 5472 5472 5478 5483 5486 5487 5486 5487 5490 5493 5500 5502 5503 5508 5513 5514 5514 5515 5517 5518 5518 5518 5520 5520 5520 5520 5520 5519 5518 5517 5516 5514 5512 5510 5507 5504 5501 5499 5497 5495 5493 5491
5447 5452 5449 5456 5470 5468 5465 5464 5466 5470 5474 5477 5481 5489 5490 5494 5499 5502 5502 5504 5504 5505 5507 5508 5509 5510 5511 5511 5510 5509 5507 5506 5505 5503 5501 5498 5494 5491 5488 5485 5483 5482 5481 5480
5436 5436 5442 5437 5443 5444 5446 5449 5450 5447 5452 5459 5462 5469 5476 5479 5485 5486 5490 5492 5493 5494 5495 5498 5498 5499 5500 5501 5500 5499 5497 5496 5494 5491 5488 5484 5480 5476 5472 5470 5469 5468 5468 5468
5433 5426 5416 5412 5422 5414 5426 5430 5423 5425 5437 5439 5440 5450 5458 5463 5469 5471 5477 5478 5480 5482 5484 5485 5487 5489 5490 5490 5489 5488 5486 5484 5482 5478 5474 5469 5463 5458 5454 5452 5452 5453 5454 5455